MET'MAP v2.0
soon released !

Expected late october,
this new version will be
more efficient, smarter,
and hosted on a brand new
server x3 powerfull...
...and still free !


Not compatible ?
Try the mobile version !

LOG IN : | Subscribe | Disclaimer | Who is Orbifly ? |
ICAO code :

TAF - LFCG St Girons Antichan - 20 Feb 2020 22:53 UTC
Data Sources :     NOAA   


- Airport Elevation : 1368 ft
- No reported NOTAMs.


LFCG - St Girons Antichan

Latest METAR recorded : 0000/00/00 L :20 TAF LELL 201400Z 2015/2115 22007KT 9999 FEW020 TX18/2113Z TN05/2106Z BECMG 2018/2020 VRB03KT BECMG 2109/2111 23008KT
NO TAF


MET'MAP, your aeronautical weather chart ! - Copyright ORBIFLY December 2007

Programming & Development : Alexandra Zaïnal
Co-Developer : Marc-Olivier Méhu
Technical & hardware support : Manuel Goepfert
Concept & Financing : Baudouin d'Aumeries